Wind_Speed
27 26 24 23 23 23 23 24 23 23 24 23 23 24 24 27 28 28 29 31 33 35 37 39 37 30 26 26 24 22 19 16 15 18 22 25 27 27 26 25 23 24 28 34 35 35 33 30 28 29 34 39 42 45 48 47 42 34 29 32 40 46 49 50 53 53 50 49 49 51 53 49 47 50
28 26 25 23 21 22 26 27 23 22 23 22 23 25 25 26 27 28 31 33 33 35 39 40 38 35 30 27 26 24 22 18 15 16 20 24 26 26 26 25 23 23 27 32 34 34 32 30 28 28 31 36 41 46 49 49 47 40 30 26 34 44 47 45 47 48 47 47 50 55 59 57 54 52
29 26 25 23 24 28 31 27 22 22 23 23 25 26 26 26 27 28 31 36 35 33 37 40 39 38 34 30 28 26 23 19 16 17 19 22 24 24 25 25 24 22 25 31 34 33 32 30 28 27 28 32 38 44 49 50 49 44 37 30 28 35 43 46 48 49 47 47 50 53 57 59 58 55
27 24 25 25 29 33 29 21 19 21 22 22 23 24 24 24 26 27 28 34 36 35 37 41 41 39 36 33 30 28 25 22 20 19 19 21 22 23 24 25 24 23 25 30 33 32 31 29 28 27 26 29 35 41 47 49 49 47 43 36 28 29 38 44 47 50 48 49 52 53 54 57 59 56
24 24 26 26 29 28 22 19 20 20 21 21 21 21 23 24 25 26 28 31 35 37 39 40 41 39 36 32 30 27 25 24 23 22 20 20 21 23 24 25 24 23 25 30 32 32 31 29 28 27 25 27 31 38 44 46 46 47 47 41 30 28 34 38 42 47 49 50 53 54 54 55 58 58
24 27 27 24 24 23 19 19 19 19 20 20 20 21 22 25 26 26 28 31 32 36 39 39 41 41 35 30 29 27 25 24 25 25 23 21 21 23 24 24 24 22 24 29 31 30 31 30 28 28 26 25 27 32 40 43 43 43 47 47 39 33 34 36 37 42 47 50 52 55 55 53 57 60
27 30 26 21 21 23 22 19 17 18 19 19 21 22 23 25 27 27 29 31 31 34 38 38 40 41 33 27 26 25 24 25 25 25 24 22 21 22 23 24 23 22 23 28 29 29 30 30 29 28 27 25 25 28 34 39 41 41 44 49 46 39 37 37 37 37 42 47 50 54 56 54 57 60
31 30 23 21 23 23 22 20 19 20 21 22 24 25 25 27 30 30 29 29 28 31 39 39 37 36 30 23 23 24 24 24 24 24 23 22 22 21 22 23 23 21 22 26 28 28 29 29 29 28 28 26 24 25 30 34 39 41 43 47 47 44 40 39 38 36 37 43 48 51 54 56 58 59
32 26 20 22 24 23 22 21 21 23 24 26 26 27 30 30 31 30 28 27 27 30 38 38 33 28 24 21 22 23 23 22 21 20 20 21 21 21 22 23 23 21 21 24 26 28 29 30 29 29 28 27 25 25 27 30 35 40 43 45 45 47 46 41 39 36 35 39 45 49 52 56 57 56
30 22 19 23 24 23 23 22 24 26 27 28 29 31 32 30 29 28 27 27 27 29 34 35 31 25 20 20 23 21 20 19 18 17 18 19 20 20 21 23 23 22 22 23 24 27 29 30 30 30 29 28 27 26 26 28 32 37 42 44 43 46 50 46 41 36 33 34 42 48 52 57 59 53
28 21 20 24 24 23 24 25 27 29 29 30 32 32 31 29 28 28 27 27 27 28 30 30 27 23 19 20 23 20 15 16 17 17 18 19 19 20 21 23 24 23 24 23 22 24 26 28 28 28 29 28 27 28 27 27 30 33 38 41 42 45 49 50 45 38 32 30 37 47 52 57 59 51
28 21 22 25 25 24 24 25 27 28 29 31 32 31 29 29 28 26 26 25 25 26 27 25 20 16 17 20 21 16 12 14 17 18 18 19 18 18 19 22 23 24 24 23 22 23 24 24 25 26 26 26 27 29 28 26 27 30 34 39 42 45 47 49 50 44 36 31 33 43 51 53 53 47
28 22 23 26 27 26 23 23 26 27 26 27 30 31 29 26 25 24 24 23 23 24 24 22 18 8 8 12 13 12 11 15 18 17 17 17 16 16 17 19 22 24 25 23 22 23 24 24 24 24 24 25 27 30 30 27 26 27 31 35 39 44 45 47 50 49 42 34 30 39 51 52 47 45
29 24 25 28 29 28 25 26 30 28 23 25 30 28 23 21 22 22 22 21 22 22 22 20 17 11 5 4 5 7 9 12 15 16 16 15 15 15 15 18 21 23 26 25 23 22 23 24 24 23 23 22 25 31 32 29 27 26 29 32 36 41 42 44 48 50 45 37 29 33 50 53 47 46
30 26 26 29 31 31 28 30 33 28 23 30 31 21 14 14 14 16 18 20 19 19 18 18 18 16 12 7 5 6 8 9 12 15 16 15 15 15 16 18 20 23 26 27 25 23 22 22 23 23 22 21 23 28 32 30 27 25 28 32 35 38 40 42 45 47 47 42 33 30 44 53 49 46
30 27 27 31 33 32 30 32 35 30 29 34 28 15 12 11 9 10 12 14 14 16 17 18 19 19 16 10 6 6 7 9 11 14 16 17 16 15 15 17 19 22 25 26 25 24 23 22 23 23 22 21 20 23 27 31 30 25 25 31 36 37 39 41 43 45 47 46 38 30 36 49 51 48
30 26 28 33 35 34 32 34 35 32 34 35 24 14 12 11 10 12 12 9 8 11 16 19 18 17 16 12 8 5 7 10 12 14 16 18 19 17 16 17 17 18 21 24 24 24 23 23 24 24 23 22 20 19 22 28 32 28 23 26 35 38 38 40 42 45 49 50 44 35 29 38 48 51
29 26 28 33 36 36 35 36 35 32 35 34 23 16 15 13 13 14 15 12 9 10 13 15 14 14 15 14 9 3 5 9 13 15 16 18 20 19 18 17 17 16 18 21 22 23 23 23 23 24 23 23 23 21 20 23 30 32 25 23 32 37 38 40 43 45 50 53 50 42 31 28 38 48
29 27 28 32 36 37 35 34 32 31 34 32 24 20 19 17 16 16 16 16 15 15 16 16 16 17 19 17 10 2 3 7 13 14 14 16 17 19 18 18 18 17 18 20 21 21 22 22 22 23 23 23 24 23 21 21 25 31 28 23 29 36 37 38 42 45 49 52 51 47 38 28 29 35
29 28 28 31 35 37 35 33 31 31 32 30 25 24 22 20 17 14 14 13 14 17 19 19 20 20 19 19 14 5 1 5 10 11 10 11 13 17 19 18 18 18 18 21 22 21 21 21 21 21 21 22 23 23 22 21 22 28 28 23 26 34 37 37 40 43 47 49 50 49 43 33 28 26
30 29 28 30 34 36 34 32 32 31 31 29 27 27 26 22 18 13 10 9 10 13 17 18 20 19 18 18 16 11 8 8 11 12 11 10 10 14 17 17 17 18 19 22 22 21 20 20 20 20 20 21 22 22 22 21 21 26 27 23 22 29 35 39 39 40 43 45 46 50 46 37 33 27
30 29 28 29 32 34 32 31 32 31 31 28 27 29 29 26 23 18 13 9 7 7 9 12 16 17 17 17 17 17 15 13 12 14 14 12 10 10 13 15 15 15 18 21 21 20 19 20 20 19 18 19 20 21 21 20 21 24 27 24 20 22 29 37 40 39 40 42 43 48 47 40 37 33
30 30 29 30 31 31 29 29 30 30 29 27 27 29 30 30 28 24 19 16 11 8 8 10 13 14 15 16 17 18 18 17 17 18 17 15 14 13 9 10 12 12 13 17 18 17 17 19 21 20 19 18 18 19 20 20 20 22 26 26 22 19 21 29 37 41 42 41 42 46 47 42 40 38
31 30 30 31 31 29 28 29 29 28 27 25 25 27 29 30 28 23 17 15 14 13 13 13 13 13 13 14 14 15 16 17 19 20 19 18 18 19 17 13 11 10 10 12 14 15 16 19 21 21 21 19 18 19 19 19 19 20 22 25 24 22 19 20 28 36 42 43 43 44 46 44 42 41
30 31 32 32 30 29 29 30 30 29 28 25 24 26 26 25 22 18 15 14 14 14 14 12 10 10 10 11 11 12 14 15 16 17 19 18 17 17 18 17 15 13 11 9 9 10 14 20 22 21 21 20 19 20 20 19 19 18 19 21 22 23 22 20 21 27 34 40 44 45 46 46 44 42
29 30 31 31 30 29 30 31 31 31 31 29 27 25 23 22 20 18 17 15 14 14 14 12 10 9 9 10 11 12 13 13 14 14 16 17 17 16 16 15 14 14 12 9 7 7 11 16 18 18 19 19 19 21 22 20 19 19 18 18 20 21 22 21 21 22 25 29 35 41 44 45 44 43
28 29 29 29 29 29 29 31 31 32 33 33 32 28 25 25 25 23 20 19 18 17 15 13 13 12 12 11 11 12 13 12 11 12 13 14 14 14 14 12 11 10 10 10 9 9 9 10 11 12 13 14 17 22 23 21 20 21 19 18 18 19 21 22 22 22 23 24 26 31 35 36 37 39
27 27 28 28 28 28 28 30 31 32 33 34 34 33 31 31 30 28 27 27 26 24 21 19 19 18 16 13 12 13 13 13 10 10 10 11 11 11 12 12 9 7 7 8 8 9 10 9 8 9 8 8 12 20 24 23 22 22 22 20 18 18 19 21 23 23 24 25 25 27 30 31 32 33
25 25 26 25 26 27 27 29 30 32 34 35 35 36 36 36 36 35 33 33 32 31 29 27 24 23 20 17 15 14 13 11 9 7 7 8 8 9 10 10 9 8 7 6 6 7 7 8 8 7 8 8 9 13 19 21 22 24 24 23 21 19 18 18 20 23 25 27 27 28 29 30 31 32
23 23 23 23 24 25 27 29 31 33 34 34 35 36 37 39 40 40 39 38 37 36 34 31 27 25 22 18 14 11 10 9 8 8 7 7 7 8 9 8 8 8 8 6 6 5 4 5 6 6 6 7 8 8 10 12 16 21 25 26 24 21 19 19 18 19 22 25 27 29 29 29 29 30
22 21 22 22 23 24 26 28 31 32 33 33 35 36 37 39 40 41 41 40 39 37 35 32 29 25 21 17 14 11 10 10 10 10 9 8 8 9 8 7 7 8 8 7 6 5 4 3 4 4 5 5 6 6 7 8 9 12 17 24 26 24 23 22 21 20 20 21 22 25 28 30 31 31
21 21 21 21 22 24 25 27 28 30 32 34 35 36 37 38 39 40 40 39 39 38 37 34 31 27 24 22 19 16 14 13 12 11 10 9 9 9 7 6 6 7 7 5 5 5 4 3 2 1 2 3 4 5 5 7 8 7 9 15 22 24 25 25 25 24 22 21 22 22 23 27 31 33
20 20 21 22 23 25 26 28 29 30 32 34 35 36 36 37 38 39 39 40 40 39 38 36 35 33 30 28 25 21 17 15 14 13 11 10 9 9 7 7 8 7 6 5 5 5 3 3 3 1 1 0 2 2 4 5 7 7 7 8 12 17 21 23 26 27 26 25 25 24 23 23 24 27
20 20 21 23 25 27 28 29 31 32 33 34 35 35 35 36 36 37 38 39 39 38 38 37 36 35 34 32 30 27 23 19 16 14 13 12 10 9 8 8 8 8 7 7 6 5 4 2 1 1 2 3 3 1 1 3 5 6 7 7 7 10 14 16 19 25 29 29 28 27 27 26 25 24
20 21 22 23 25 26 27 29 30 31 32 33 33 34 34 34 35 36 36 36 36 36 36 36 36 35 35 34 33 31 29 25 21 16 13 11 11 11 10 10 9 9 8 8 7 7 6 4 3 2 0 3 5 4 2 2 4 6 7 8 7 9 11 11 12 17 24 29 30 29 29 29 29 28
21 22 23 23 25 26 26 28 29 29 30 31 32 33 33 33 34 34 35 35 34 34 34 35 35 35 34 34 33 33 32 31 28 23 18 14 12 11 10 10 10 9 9 9 9 8 6 5 3 2 2 2 4 6 4 3 3 5 6 8 9 9 11 11 10 11 16 22 27 29 30 30 31 32
21 22 23 24 25 25 26 27 27 28 29 30 30 31 32 32 32 32 32 32 31 32 33 33 33 34 33 33 32 32 32 32 32 29 26 21 15 11 9 9 10 9 9 8 8 7 6 5 3 1 1 2 3 5 6 5 4 4 5 6 8 9 10 12 12 11 12 15 19 23 25 26 28 30
21 22 23 24 24 25 25 26 26 27 28 28 29 29 30 30 30 30 30 30 30 31 31 31 32 32 32 32 32 31 31 31 31 31 30 27 23 17 13 11 11 10 9 8 7 6 6 6 4 3 2 2 2 2 5 6 7 6 5 6 7 9 11 12 13 13 12 12 14 16 18 18 19 20
21 22 23 23 23 24 25 25 26 26 27 27 28 28 29 29 28 29 29 29 29 30 30 30 31 31 31 31 31 31 31 31 31 31 30 30 29 25 20 16 13 12 10 9 6 5 4 5 5 4 2 1 1 1 4 6 8 8 8 8 8 9 12 13 13 13 13 12 12 14 15 16 15 15
21 21 22 22 22 23 23 24 24 25 25 26 27 27 28 28 28 28 29 28 28 28 29 29 30 30 30 30 30 30 30 30 30 30 30 29 29 28 26 22 18 15 13 11 9 7 5 5 6 4 2 1 2 4 5 6 8 9 9 10 10 10 11 12 13 13 13 13 13 13 14 15 16 16
20 20 21 21 21 22 22 23 23 24 24 24 25 26 26 26 27 27 27 27 27 27 28 28 29 29 29 29 29 29 29 29 29 28 28 28 28 28 27 25 22 19 17 14 12 10 8 7 6 5 3 2 3 5 5 6 7 7 6 8 10 11 11 10 11 12 12 12 13 14 14 14 14 15
19 20 20 20 21 21 22 22 22 23 23 24 24 24 25 25 25 25 25 25 25 26 26 27 28 28 28 28 29 29 28 28 28 28 27 27 26 26 26 26 25 24 22 19 16 14 11 8 7 5 3 2 3 3 3 4 5 6 5 6 9 11 12 11 10 11 11 11 12 13 14 14 14 15
19 19 19 20 20 20 21 21 22 22 23 23 24 24 24 25 25 25 25 25 25 25 25 26 26 26 27 27 27 27 27 27 27 27 27 27 26 25 25 26 25 24 22 20 17 15 12 9 8 6 4 4 2 1 2 2 3 4 5 5 6 8 11 12 12 12 12 12 11 11 11 12 13 13
19 19 19 19 20 20 20 21 21 22 22 23 23 24 25 25 25 26 25 25 25 25 25 26 26 26 26 25 25 25 26 26 26 26 25 26 26 25 24 24 23 23 22 19 17 14 11 9 8 7 5 5 4 2 2 3 4 4 4 5 6 7 8 10 12 13 14 13 13 12 11 11 11 11
18 18 19 19 19 20 20 21 21 21 22 23 23 24 25 25 25 26 25 25 25 25 25 26 26 25 25 25 25 25 25 24 24 24 23 23 24 24 24 23 22 22 22 21 19 17 13 10 8 6 5 5 5 5 4 3 4 4 5 6 7 7 8 9 10 11 13 14 14 14 14 13 13 12
Wind_Direction
323 313 308 304 305 309 308 299 293 291 289 287 287 287 286 287 294 298 296 294 293 295 296 293 290 286 276 271 273 277 276 272 270 264 254 249 247 242 240 240 242 241 235 229 227 226 223 221 222 221 221 221 217 217 219 220 218 214 208 205 208 210 209 208 209 209 208 209 208 212 217 221 219 215
320 313 309 304 300 307 312 304 293 292 291 289 289 287 286 288 291 291 290 288 290 294 295 291 288 287 280 273 275 276 273 271 270 266 259 250 245 242 240 240 242 241 235 228 226 226 223 221 222 223 221 220 218 216 217 221 220 216 216 211 201 202 205 207 210 211 212 212 209 210 215 221 221 216
327 317 312 308 301 304 309 304 293 292 293 292 291 288 287 289 288 287 286 286 288 292 291 287 286 286 281 275 273 271 268 270 268 263 261 255 246 242 241 238 239 241 233 226 225 224 222 220 222 224 224 220 219 218 218 221 222 219 221 219 206 201 201 201 205 208 210 211 210 208 209 215 218 214
334 321 318 312 305 308 310 306 298 295 296 296 294 291 291 292 290 288 287 287 289 289 285 285 286 285 283 279 273 270 270 269 265 259 260 260 251 242 239 236 236 239 231 224 223 222 220 219 220 224 226 221 219 219 220 222 223 221 220 218 212 207 202 200 203 205 207 210 209 207 208 212 214 212
335 323 322 314 310 316 315 308 303 300 299 297 294 293 292 291 292 292 289 287 291 291 283 281 283 283 284 279 271 271 274 270 263 258 258 261 255 244 237 234 235 236 229 222 221 220 219 218 218 221 226 225 220 219 221 223 225 224 221 219 219 216 210 206 207 208 209 209 209 210 211 212 214 212
332 324 324 317 318 327 324 315 309 304 306 303 299 299 297 297 301 302 295 288 289 292 285 279 279 280 280 277 270 269 273 272 265 257 252 255 255 248 239 233 232 234 228 221 220 220 218 218 218 218 222 226 223 220 221 223 225 224 220 219 222 222 218 213 212 213 212 209 209 210 211 213 214 211
330 327 328 325 330 336 333 328 324 321 323 322 317 314 311 310 310 311 308 295 288 290 287 280 279 279 278 275 270 269 273 272 265 255 248 248 252 250 242 232 229 231 226 220 220 220 218 218 218 217 220 224 223 220 220 222 224 222 217 216 218 220 220 219 217 215 213 211 210 209 209 212 211 207
331 333 334 337 340 340 335 333 333 334 334 332 328 323 319 318 315 315 312 298 288 288 286 283 283 281 277 272 270 270 270 265 256 250 247 246 248 247 241 232 226 226 223 218 219 222 220 219 218 218 219 221 222 220 219 221 223 221 215 211 212 214 219 224 223 219 215 213 212 210 210 213 210 203
335 339 341 344 346 342 336 335 337 340 339 336 333 326 322 322 319 313 304 295 293 292 290 290 291 284 273 267 267 265 262 256 247 244 245 244 245 246 239 229 223 221 218 216 218 221 223 221 219 219 219 219 221 220 219 220 220 220 216 210 209 212 217 224 226 225 222 216 214 212 213 214 210 203
338 346 348 348 349 345 341 341 341 340 338 335 330 326 325 323 316 307 300 299 302 299 294 294 293 284 270 263 260 256 252 246 240 241 245 243 242 244 238 227 220 217 213 213 216 219 222 221 218 217 218 219 220 219 219 219 219 220 217 212 209 211 216 222 224 224 224 219 215 213 213 215 212 204
342 352 356 353 353 350 345 341 336 333 332 329 326 327 325 316 309 306 304 305 307 304 300 297 291 279 262 253 252 251 246 238 236 240 243 242 239 240 237 227 220 216 213 212 213 217 220 219 216 217 220 222 221 219 219 219 218 219 218 214 211 211 214 219 222 223 225 223 219 215 213 213 209 204
346 356 1 359 357 351 342 336 334 332 329 327 325 324 318 312 311 311 308 307 310 311 308 310 308 282 250 244 249 253 243 231 232 235 239 241 241 240 237 229 220 216 213 212 213 214 216 214 213 216 221 223 221 218 218 220 218 217 217 215 213 212 214 217 220 224 228 231 228 218 212 209 206 204
349 359 3 4 2 354 349 350 351 347 338 329 324 320 317 316 316 313 311 313 316 316 315 325 339 325 254 250 260 263 250 233 230 233 239 245 244 241 239 229 221 217 212 210 211 213 215 214 213 216 220 221 219 216 216 219 219 217 217 217 214 212 213 214 218 223 226 232 236 218 206 204 206 208
351 359 5 7 4 360 3 5 359 355 346 331 324 321 320 320 318 316 319 321 320 318 321 334 354 4 351 316 291 273 257 241 233 230 235 243 241 236 232 223 219 215 212 210 209 210 215 217 218 220 221 221 219 216 216 218 220 220 220 218 215 212 212 212 214 219 222 227 238 220 202 200 206 209
352 357 4 9 6 3 5 3 358 356 345 331 327 328 330 328 327 328 327 325 323 325 334 349 2 8 9 14 353 292 258 242 235 229 230 238 236 227 223 219 215 211 209 210 209 210 215 218 221 225 224 223 222 218 217 218 220 223 224 220 216 212 211 210 210 214 217 222 234 225 201 198 204 206
354 356 3 10 8 4 3 1 359 353 337 332 335 342 348 350 1 3 347 333 331 341 351 0 9 15 14 11 360 315 269 242 234 230 230 233 231 227 227 226 220 212 208 209 210 213 217 218 221 225 225 226 226 221 220 220 220 224 227 222 217 212 211 210 208 209 212 218 228 226 201 196 203 205
355 356 3 10 8 4 2 2 359 348 335 337 345 354 359 6 17 24 27 20 356 354 3 8 13 24 23 13 9 339 281 247 231 229 230 231 230 230 233 233 228 217 207 207 210 214 220 222 221 223 224 226 227 223 221 220 219 223 228 223 216 211 209 209 207 208 210 214 224 229 207 193 200 204
357 357 6 12 8 3 2 1 356 346 338 342 352 1 6 10 13 22 33 39 34 28 29 25 23 40 47 35 24 351 280 240 222 223 228 230 229 227 229 230 225 215 206 205 209 212 216 219 218 219 222 223 225 224 221 219 218 220 226 226 216 209 206 205 205 207 210 214 221 227 221 198 192 200
358 358 8 14 8 3 0 357 354 349 343 346 357 6 8 9 11 22 30 31 32 37 48 54 50 55 61 54 47 23 264 221 211 217 222 226 228 222 220 221 219 211 202 200 205 209 212 213 213 216 221 222 223 222 220 219 218 217 221 226 216 207 202 200 200 204 209 214 218 221 224 214 192 193
360 1 11 16 10 3 358 355 357 355 347 350 2 7 9 12 13 22 31 28 29 36 48 62 64 64 67 66 66 73 108 169 179 191 197 205 212 211 209 209 207 206 200 197 201 207 209 210 212 216 219 220 219 219 217 217 216 213 215 221 217 208 201 197 197 200 204 210 215 217 221 220 203 196
2 5 12 18 12 2 356 356 0 358 352 357 7 8 9 15 15 19 30 29 31 36 44 59 69 72 76 75 76 82 87 112 144 158 156 158 180 197 200 198 197 198 197 195 200 207 208 207 209 212 214 215 213 213 213 214 214 211 210 215 216 209 203 198 195 197 200 203 209 214 218 219 212 207
5 6 12 20 15 1 356 360 4 2 359 1 9 11 11 15 17 15 14 15 26 38 44 60 73 76 77 77 76 77 78 87 112 126 123 126 146 172 188 193 193 192 193 193 197 204 207 205 204 203 203 205 207 207 206 208 212 211 209 212 213 207 204 201 196 195 197 200 203 209 213 215 213 211
7 8 13 22 18 3 1 8 8 7 6 6 12 15 13 15 17 12 5 5 12 20 27 44 62 70 72 72 71 73 75 78 85 93 98 109 117 115 127 161 171 170 180 190 194 198 201 201 200 198 192 190 196 201 200 200 206 210 211 212 212 207 202 201 200 198 197 197 198 203 208 210 209 210
7 10 15 23 21 11 12 19 17 15 16 14 18 22 19 17 15 10 8 10 14 19 22 30 46 57 62 66 68 70 73 73 74 77 81 89 97 96 95 104 115 124 146 173 186 192 195 194 194 196 194 190 189 192 194 194 197 204 211 213 213 210 202 197 199 200 200 199 197 198 203 205 203 204
8 13 18 24 25 21 22 25 25 25 26 25 28 31 29 25 18 12 18 26 26 28 30 30 38 47 51 60 66 67 69 69 67 69 70 73 79 86 89 88 87 92 110 141 162 174 183 186 188 191 194 196 192 187 186 186 187 193 204 210 213 213 207 200 196 196 199 201 200 197 199 201 199 200
9 16 21 24 28 28 27 27 28 29 31 34 37 38 38 38 33 28 31 35 36 36 36 35 38 44 48 55 62 66 67 66 63 62 63 64 65 68 71 74 76 79 88 107 124 135 158 175 183 186 189 193 194 189 184 181 181 181 187 197 206 210 210 207 202 197 195 198 200 198 197 197 197 198
9 16 22 25 29 30 28 29 30 31 33 37 40 40 43 45 44 42 42 45 46 45 44 44 44 45 45 45 49 54 54 54 57 57 55 55 59 63 63 60 61 68 77 87 97 104 119 143 165 178 183 188 191 189 185 182 181 179 176 179 189 200 207 208 207 205 201 198 199 200 199 199 198 197
9 15 22 24 26 28 29 30 32 32 34 38 39 39 42 46 47 46 44 46 47 47 48 48 44 40 40 36 33 34 34 34 39 46 47 46 48 56 62 61 60 71 82 83 85 91 95 105 130 154 163 171 183 188 188 186 184 182 178 175 176 184 195 202 206 207 207 205 205 205 205 207 205 202
10 15 20 21 23 26 27 29 32 34 36 38 38 38 40 42 45 45 44 45 45 45 45 45 41 38 37 32 26 22 19 18 22 30 38 40 40 49 62 66 63 68 80 83 82 85 86 86 98 126 145 152 163 179 188 191 190 187 185 181 178 177 180 188 196 203 206 207 209 210 211 212 212 209
9 12 16 18 21 25 27 29 31 34 36 37 38 39 40 42 44 44 44 43 44 44 44 43 42 39 36 32 27 23 18 17 22 27 28 30 36 47 61 67 64 63 70 79 80 80 80 76 75 89 123 145 151 155 168 183 191 193 193 190 186 183 181 180 182 189 197 202 207 211 214 216 217 217
9 11 15 18 21 25 29 32 33 33 33 34 36 38 41 43 45 46 45 45 45 44 44 44 43 42 39 36 36 36 37 38 37 36 33 29 31 38 49 61 66 66 66 71 80 85 84 77 66 69 86 117 144 153 152 157 167 182 195 198 197 194 191 188 184 183 186 191 195 202 208 212 216 219
7 10 12 15 20 23 27 31 33 33 32 32 33 36 38 40 43 45 45 46 45 44 43 43 42 42 41 39 38 39 42 48 49 47 42 37 34 33 34 41 54 63 67 69 75 84 90 90 87 72 64 86 118 149 162 162 156 151 171 193 201 202 200 196 194 190 187 188 189 190 195 202 208 213
3 7 9 12 17 21 23 26 29 30 31 31 32 33 34 36 39 41 42 43 43 43 42 41 39 39 39 39 40 39 40 45 47 46 43 38 36 35 31 32 37 41 44 46 51 61 74 87 99 139 231 165 119 140 165 177 176 166 156 164 187 201 204 202 202 200 197 195 194 193 192 193 198 205
1 8 13 16 20 22 23 25 26 27 29 29 30 31 32 33 36 38 40 41 41 42 43 42 40 39 37 38 39 40 40 40 40 39 38 36 34 34 35 37 36 33 29 28 33 38 33 25 54 109 214 231 231 198 162 188 192 191 186 174 166 180 192 197 202 206 205 204 201 199 198 196 195 196
6 14 18 22 24 24 25 27 27 27 27 28 28 29 30 31 34 36 38 38 39 40 41 42 42 41 39 39 39 39 41 41 39 38 38 40 41 42 40 39 36 32 30 25 21 24 22 8 2 27 331 239 236 236 219 196 201 204 204 201 188 177 179 184 190 200 206 208 208 206 205 203 201 199
14 20 22 24 26 26 27 28 28 28 28 28 28 28 28 29 31 34 35 36 36 37 38 39 40 41 41 40 40 40 40 40 39 38 36 38 43 46 45 44 41 37 34 29 23 21 19 10 4 13 15 313 262 252 243 219 210 211 208 206 204 195 188 187 187 191 199 205 209 211 212 212 210 207
19 23 25 27 27 27 28 28 29 29 30 30 29 29 29 29 30 32 33 33 34 35 36 36 37 38 39 39 39 40 40 39 39 39 38 38 40 44 46 45 44 43 40 33 26 20 17 13 12 16 27 16 332 286 268 255 245 236 221 211 210 206 199 196 196 195 195 199 203 207 211 215 217 216
22 25 27 29 29 29 29 29 29 29 30 30 30 30 30 29 29 30 30 31 32 33 33 34 35 35 36 36 37 37 38 39 38 38 38 37 39 41 41 35 32 36 40 36 27 19 15 13 17 29 43 49 29 323 278 259 249 246 243 234 225 219 213 207 203 200 199 199 200 202 205 208 211 213
25 26 29 30 30 30 30 30 29 29 29 29 29 30 29 28 28 28 28 29 30 30 31 31 31 31 32 33 34 34 35 36 36 35 35 35 36 38 38 32 25 23 28 29 26 16 2 1 10 23 37 47 33 281 268 258 245 236 233 234 234 230 222 213 207 204 202 200 199 199 201 202 200 199
26 27 28 30 31 30 30 30 29 30 30 30 29 29 29 28 27 26 27 27 27 29 30 30 29 28 28 29 30 30 31 32 33 32 33 33 33 34 35 33 29 24 20 19 19 15 1 355 0 3 6 351 274 249 248 252 246 237 229 228 232 235 228 215 207 205 203 200 198 198 198 200 200 199
27 27 27 28 29 30 30 30 30 30 30 30 30 30 29 28 27 26 26 25 25 26 28 28 28 27 26 26 25 26 27 28 28 28 28 29 29 30 31 30 29 27 23 19 15 11 8 3 356 343 327 307 272 251 247 254 252 244 233 226 225 226 224 216 209 207 205 202 200 198 196 196 197 199
27 28 28 29 29 29 30 30 30 29 29 28 28 29 28 28 27 27 26 25 24 25 26 26 27 26 25 24 23 22 22 24 24 23 22 23 23 25 26 26 25 24 23 21 17 10 3 357 344 320 288 271 261 242 238 259 258 244 226 215 214 213 211 208 205 204 203 201 201 201 197 191 189 189
27 29 29 30 30 29 30 30 29 28 28 27 26 27 26 26 26 25 24 24 23 24 24 25 25 24 24 24 23 21 20 20 19 19 18 18 17 18 20 21 21 20 18 19 19 13 1 345 329 308 276 257 249 207 172 185 221 231 225 212 203 201 202 202 202 201 199 197 197 198 199 198 195 191
27 28 30 31 31 30 30 30 29 28 27 27 26 26 25 25 24 24 24 23 22 23 23 23 22 22 21 21 21 20 19 19 17 16 15 14 14 13 13 14 17 16 14 13 15 15 10 355 338 321 293 272 265 248 188 169 171 177 188 196 200 198 194 196 201 204 204 205 203 198 196 198 200 197
27 28 29 30 30 31 31 29 29 28 26 26 25 24 24 23 22 21 21 22 21 21 21 20 20 19 18 18 17 17 16 16 15 14 13 11 10 9 8 7 9 12 13 12 10 10 12 8 357 342 319 294 277 264 251 223 192 171 160 172 193 203 195 192 199 205 207 211 213 211 208 205 202 199
Height
1355 1353 1350 1346 1342 1340 1337 1335 1333 1331 1329 1328 1326 1324 1323 1319 1314 1309 1304 1299 1295 1293 1292 1288 1284 1288 1291 1290 1291 1292 1291 1291 1292 1294 1294 1295 1296 1297 1299 1300 1301 1303 1304 1306 1307 1309 1311 1313 1314 1317 1319 1322 1325 1328 1331 1334 1338 1341 1343 1344 1347 1351 1355 1358 1361 1366 1371 1377 1382 1387 1392 1397 1401 1404
1353 1350 1347 1344 1340 1337 1334 1332 1330 1329 1327 1325 1323 1321 1319 1318 1315 1311 1304 1297 1295 1292 1289 1286 1283 1284 1286 1287 1287 1287 1287 1287 1288 1290 1291 1291 1292 1293 1295 1296 1297 1298 1300 1302 1303 1305 1307 1309 1311 1313 1315 1318 1321 1324 1327 1330 1334 1337 1340 1342 1343 1346 1351 1355 1359 1363 1368 1373 1378 1382 1387 1393 1398 1400
1351 1347 1344 1341 1338 1334 1331 1328 1326 1326 1324 1322 1320 1318 1317 1315 1313 1311 1305 1295 1292 1292 1287 1282 1281 1282 1282 1283 1284 1283 1283 1284 1284 1286 1287 1288 1288 1290 1291 1292 1293 1294 1296 1298 1300 1302 1304 1306 1308 1310 1312 1314 1317 1320 1323 1326 1329 1334 1337 1340 1341 1343 1347 1351 1355 1360 1365 1369 1374 1377 1382 1387 1393 1396
1348 1345 1342 1338 1335 1331 1327 1325 1324 1323 1321 1319 1318 1315 1314 1313 1310 1308 1305 1295 1289 1289 1287 1281 1278 1279 1279 1279 1279 1279 1279 1280 1281 1282 1283 1284 1285 1286 1287 1288 1289 1291 1292 1294 1296 1298 1300 1303 1305 1307 1309 1311 1313 1316 1318 1321 1325 1329 1333 1337 1338 1340 1344 1348 1352 1357 1361 1365 1370 1374 1377 1382 1387 1392
1346 1343 1339 1335 1332 1328 1325 1323 1322 1320 1318 1316 1315 1313 1311 1310 1307 1305 1302 1296 1288 1283 1282 1280 1276 1275 1276 1275 1274 1276 1276 1276 1278 1278 1279 1281 1281 1282 1283 1284 1286 1287 1288 1290 1292 1294 1297 1299 1302 1304 1306 1308 1310 1313 1315 1317 1321 1324 1329 1333 1336 1338 1341 1345 1349 1353 1357 1361 1365 1370 1374 1378 1383 1387
1344 1340 1336 1332 1329 1326 1323 1321 1319 1317 1316 1313 1311 1310 1308 1306 1303 1301 1298 1294 1288 1281 1276 1277 1274 1271 1273 1272 1271 1272 1273 1273 1275 1274 1275 1277 1278 1278 1280 1281 1283 1284 1285 1287 1289 1291 1293 1296 1299 1301 1303 1305 1307 1309 1311 1314 1317 1320 1325 1329 1333 1336 1339 1343 1347 1350 1354 1357 1361 1365 1371 1375 1378 1382
1342 1337 1333 1330 1327 1324 1321 1319 1317 1314 1313 1311 1308 1306 1305 1302 1299 1297 1295 1291 1288 1281 1272 1271 1270 1267 1268 1268 1267 1269 1270 1270 1271 1271 1271 1273 1274 1275 1276 1278 1279 1281 1282 1284 1286 1288 1290 1293 1296 1298 1300 1303 1304 1306 1308 1311 1313 1316 1320 1325 1330 1335 1339 1342 1345 1347 1351 1354 1357 1362 1367 1372 1374 1376
1340 1335 1331 1328 1325 1322 1319 1316 1314 1312 1310 1308 1306 1303 1301 1299 1295 1293 1291 1288 1286 1281 1271 1267 1267 1264 1263 1264 1264 1266 1267 1267 1267 1267 1268 1269 1270 1272 1273 1274 1276 1278 1279 1281 1283 1286 1287 1290 1293 1295 1297 1300 1302 1303 1305 1308 1310 1313 1317 1321 1326 1332 1336 1340 1342 1344 1347 1351 1355 1359 1364 1368 1370 1371
1338 1333 1330 1327 1323 1320 1317 1315 1312 1310 1307 1304 1302 1300 1298 1295 1292 1289 1287 1285 1283 1278 1270 1265 1263 1262 1261 1261 1261 1263 1264 1264 1264 1264 1265 1266 1267 1269 1270 1271 1273 1275 1276 1278 1280 1282 1284 1287 1289 1292 1295 1297 1299 1301 1303 1305 1307 1310 1314 1318 1322 1327 1332 1336 1339 1341 1344 1347 1352 1356 1360 1364 1366 1368
1336 1332 1329 1325 1322 1319 1315 1313 1310 1307 1304 1302 1299 1297 1294 1292 1289 1286 1284 1281 1279 1274 1269 1265 1262 1259 1259 1259 1259 1261 1261 1261 1261 1262 1263 1264 1265 1266 1267 1268 1270 1272 1273 1275 1277 1279 1281 1283 1286 1289 1291 1294 1296 1298 1300 1302 1304 1307 1311 1314 1318 1322 1326 1331 1335 1338 1341 1345 1348 1352 1356 1359 1362 1364
1334 1331 1328 1324 1321 1317 1314 1311 1309 1305 1303 1300 1297 1294 1292 1289 1286 1283 1280 1277 1275 1270 1265 1263 1260 1257 1257 1257 1257 1258 1258 1258 1259 1260 1261 1261 1262 1263 1264 1265 1267 1269 1271 1273 1275 1277 1279 1281 1284 1286 1288 1291 1293 1296 1298 1300 1302 1305 1308 1311 1315 1317 1321 1326 1331 1336 1339 1342 1345 1349 1352 1355 1358 1361
1333 1330 1327 1323 1319 1316 1313 1310 1308 1304 1301 1298 1295 1292 1289 1286 1283 1280 1277 1274 1271 1267 1262 1258 1256 1254 1255 1255 1255 1255 1255 1255 1256 1257 1258 1259 1260 1261 1261 1263 1265 1266 1268 1271 1273 1275 1277 1279 1282 1284 1286 1288 1290 1293 1296 1297 1300 1302 1305 1308 1311 1313 1317 1322 1328 1333 1337 1340 1343 1345 1349 1352 1355 1359
1332 1329 1325 1322 1318 1314 1312 1309 1305 1302 1300 1297 1294 1289 1286 1283 1280 1277 1275 1272 1269 1265 1260 1255 1252 1250 1251 1252 1252 1252 1252 1252 1254 1255 1256 1257 1258 1259 1259 1260 1262 1264 1266 1269 1271 1273 1275 1277 1279 1281 1283 1285 1287 1290 1293 1295 1297 1299 1302 1305 1307 1310 1314 1319 1324 1330 1336 1339 1340 1342 1345 1349 1353 1357
1330 1327 1324 1320 1317 1313 1309 1305 1302 1300 1297 1295 1291 1287 1284 1281 1278 1275 1272 1269 1266 1264 1260 1255 1251 1249 1249 1249 1249 1249 1249 1250 1251 1253 1254 1255 1256 1256 1257 1258 1259 1261 1264 1266 1268 1271 1273 1275 1277 1279 1281 1283 1285 1287 1290 1292 1295 1297 1299 1302 1304 1307 1311 1315 1321 1327 1333 1337 1338 1339 1341 1345 1350 1355
1329 1326 1323 1319 1315 1311 1307 1303 1300 1297 1295 1292 1287 1283 1281 1279 1276 1273 1269 1266 1264 1261 1257 1254 1251 1249 1248 1247 1247 1246 1247 1247 1249 1250 1251 1253 1254 1255 1255 1256 1256 1258 1261 1264 1266 1268 1271 1273 1275 1277 1279 1281 1283 1285 1288 1291 1293 1295 1297 1299 1301 1304 1307 1312 1318 1323 1329 1334 1336 1337 1338 1342 1347 1352
1328 1325 1321 1317 1313 1310 1306 1302 1298 1295 1293 1289 1285 1281 1278 1276 1274 1271 1268 1265 1261 1258 1255 1252 1250 1249 1247 1246 1245 1244 1244 1245 1246 1248 1249 1251 1252 1253 1254 1254 1255 1256 1259 1261 1264 1266 1269 1271 1273 1275 1277 1279 1281 1283 1286 1289 1291 1293 1294 1296 1298 1300 1304 1309 1314 1319 1324 1330 1334 1334 1335 1338 1344 1349
1328 1324 1320 1316 1312 1309 1305 1300 1297 1295 1290 1286 1282 1279 1276 1273 1271 1269 1267 1264 1262 1258 1255 1252 1251 1249 1248 1246 1245 1243 1243 1243 1244 1246 1247 1249 1250 1251 1252 1253 1254 1255 1257 1260 1262 1265 1267 1269 1271 1273 1276 1277 1279 1282 1284 1286 1288 1290 1292 1293 1295 1298 1301 1306 1310 1314 1319 1326 1330 1332 1333 1336 1341 1346
1328 1325 1320 1315 1311 1308 1303 1300 1298 1295 1288 1283 1279 1276 1273 1271 1269 1267 1265 1263 1262 1259 1255 1252 1252 1250 1248 1246 1245 1243 1242 1242 1243 1244 1245 1247 1248 1249 1251 1252 1253 1254 1256 1258 1260 1263 1265 1267 1269 1271 1274 1276 1278 1280 1282 1284 1286 1288 1290 1291 1293 1295 1298 1302 1306 1309 1314 1320 1326 1330 1332 1334 1338 1343
1329 1325 1320 1315 1312 1308 1304 1301 1299 1294 1287 1282 1278 1275 1272 1270 1267 1265 1263 1262 1261 1258 1253 1251 1251 1249 1247 1246 1245 1244 1243 1242 1242 1243 1244 1245 1246 1248 1249 1251 1252 1253 1255 1257 1259 1261 1263 1265 1267 1269 1271 1273 1275 1278 1279 1281 1283 1285 1287 1289 1290 1292 1296 1299 1302 1305 1310 1316 1321 1327 1331 1333 1335 1339
1330 1325 1320 1316 1312 1308 1305 1302 1299 1294 1287 1282 1278 1274 1271 1268 1266 1264 1262 1261 1260 1257 1254 1251 1250 1249 1248 1247 1245 1243 1242 1241 1241 1242 1244 1244 1245 1247 1248 1250 1251 1252 1253 1255 1257 1259 1261 1263 1265 1267 1269 1271 1273 1275 1277 1279 1280 1282 1285 1287 1288 1289 1292 1295 1298 1301 1306 1312 1318 1323 1328 1332 1334 1337
1330 1325 1321 1317 1313 1309 1306 1302 1298 1293 1286 1281 1277 1273 1269 1266 1264 1262 1261 1260 1259 1258 1255 1253 1251 1250 1249 1247 1245 1243 1242 1241 1241 1241 1242 1243 1245 1246 1247 1248 1249 1250 1252 1254 1256 1258 1260 1262 1264 1266 1267 1269 1271 1273 1275 1277 1278 1280 1283 1285 1286 1287 1289 1292 1295 1299 1303 1308 1314 1319 1325 1331 1334 1337
1331 1326 1322 1318 1314 1311 1307 1303 1298 1293 1286 1280 1277 1273 1269 1266 1263 1261 1260 1259 1258 1257 1256 1254 1251 1250 1248 1246 1245 1243 1243 1243 1242 1241 1242 1243 1244 1246 1247 1248 1248 1250 1251 1253 1255 1256 1258 1260 1262 1264 1266 1268 1269 1271 1273 1275 1276 1278 1280 1283 1284 1285 1287 1290 1293 1296 1301 1305 1310 1315 1321 1328 1333 1336
1331 1327 1323 1318 1315 1313 1308 1303 1299 1294 1287 1282 1278 1274 1270 1266 1264 1262 1260 1259 1257 1256 1255 1253 1251 1249 1248 1246 1245 1245 1244 1244 1243 1243 1243 1243 1244 1245 1246 1248 1248 1249 1251 1253 1254 1255 1257 1259 1261 1263 1264 1266 1267 1269 1271 1273 1274 1276 1278 1281 1283 1284 1286 1288 1291 1294 1298 1303 1306 1311 1317 1324 1330 1334
1332 1328 1324 1318 1315 1313 1309 1304 1300 1295 1289 1284 1280 1276 1272 1268 1266 1265 1263 1261 1259 1257 1256 1254 1251 1250 1249 1247 1247 1247 1246 1246 1245 1245 1245 1245 1245 1245 1246 1248 1248 1249 1250 1252 1254 1255 1256 1258 1260 1261 1263 1264 1265 1267 1269 1271 1273 1275 1277 1279 1281 1283 1284 1286 1289 1292 1296 1300 1304 1308 1313 1320 1326 1331
1333 1328 1324 1319 1316 1314 1310 1306 1301 1297 1292 1287 1283 1279 1276 1273 1271 1268 1265 1263 1261 1258 1256 1254 1252 1251 1250 1249 1248 1248 1248 1248 1248 1248 1247 1247 1247 1247 1247 1248 1249 1250 1251 1252 1254 1255 1256 1257 1259 1260 1262 1263 1264 1266 1268 1270 1272 1274 1276 1277 1279 1282 1283 1285 1288 1291 1295 1298 1302 1305 1310 1315 1322 1327
1334 1329 1326 1322 1319 1316 1313 1308 1304 1300 1295 1290 1286 1283 1280 1277 1274 1270 1266 1263 1261 1259 1257 1254 1253 1251 1250 1250 1249 1249 1249 1250 1250 1250 1250 1249 1249 1249 1249 1249 1250 1251 1252 1253 1254 1255 1256 1257 1259 1260 1261 1263 1264 1265 1267 1269 1271 1273 1275 1277 1278 1280 1283 1285 1288 1290 1293 1297 1300 1304 1307 1312 1317 1323
1336 1332 1328 1325 1321 1318 1315 1311 1307 1303 1298 1293 1290 1287 1283 1279 1275 1272 1268 1265 1263 1260 1258 1255 1254 1253 1252 1251 1251 1251 1251 1251 1252 1252 1252 1252 1252 1252 1252 1252 1252 1253 1254 1254 1255 1256 1256 1257 1259 1260 1261 1262 1263 1265 1267 1268 1270 1272 1274 1276 1278 1280 1282 1285 1287 1290 1293 1296 1300 1303 1307 1311 1315 1319
1337 1334 1330 1327 1324 1321 1317 1313 1309 1305 1301 1296 1293 1289 1285 1280 1276 1273 1270 1267 1265 1262 1259 1257 1256 1255 1254 1254 1253 1253 1253 1254 1254 1254 1254 1254 1254 1254 1254 1254 1254 1254 1255 1255 1256 1257 1257 1258 1259 1260 1262 1263 1264 1265 1267 1268 1270 1272 1274 1276 1278 1280 1282 1284 1287 1290 1293 1296 1300 1303 1306 1310 1313 1316
1339 1336 1333 1330 1327 1323 1320 1316 1312 1307 1303 1299 1295 1291 1287 1282 1277 1275 1272 1269 1266 1262 1260 1259 1259 1258 1257 1257 1256 1256 1256 1256 1255 1255 1256 1256 1256 1256 1255 1255 1255 1255 1256 1257 1257 1258 1259 1259 1260 1261 1262 1263 1264 1265 1267 1269 1270 1273 1274 1276 1278 1280 1282 1285 1287 1290 1293 1296 1299 1302 1305 1308 1311 1313
1341 1338 1335 1332 1329 1325 1321 1317 1313 1309 1306 1302 1299 1294 1290 1285 1281 1277 1274 1271 1267 1265 1264 1263 1262 1262 1261 1261 1260 1259 1258 1257 1257 1257 1257 1257 1257 1257 1257 1257 1257 1257 1257 1258 1258 1259 1260 1261 1262 1263 1263 1264 1265 1266 1268 1269 1271 1273 1275 1277 1279 1281 1283 1285 1287 1290 1293 1296 1299 1302 1305 1308 1310 1313
1343 1339 1336 1333 1330 1327 1323 1319 1315 1311 1308 1305 1301 1297 1293 1289 1285 1281 1278 1275 1272 1270 1269 1268 1267 1266 1265 1264 1262 1261 1260 1259 1259 1259 1259 1259 1259 1259 1259 1258 1258 1258 1259 1259 1260 1260 1261 1262 1263 1264 1265 1265 1266 1267 1268 1270 1271 1273 1275 1277 1279 1281 1283 1285 1288 1290 1293 1296 1299 1302 1304 1307 1310 1312
1343 1340 1337 1334 1330 1327 1323 1320 1316 1313 1309 1306 1302 1299 1295 1292 1289 1286 1283 1280 1277 1275 1274 1272 1271 1270 1268 1266 1264 1263 1262 1261 1261 1261 1261 1261 1260 1260 1260 1260 1260 1260 1261 1261 1261 1262 1263 1263 1264 1265 1266 1267 1267 1268 1269 1270 1272 1273 1275 1277 1279 1281 1283 1285 1287 1290 1293 1296 1298 1301 1304 1306 1309 1312
1344 1340 1337 1334 1330 1326 1323 1320 1317 1314 1311 1308 1305 1301 1298 1295 1292 1289 1286 1283 1281 1279 1278 1276 1274 1272 1271 1269 1268 1266 1265 1264 1264 1263 1263 1262 1262 1262 1262 1262 1262 1262 1262 1263 1263 1263 1264 1265 1265 1266 1267 1268 1268 1269 1270 1271 1273 1274 1275 1277 1278 1280 1282 1285 1287 1289 1292 1295 1297 1300 1303 1306 1308 1311
1344 1340 1337 1333 1330 1327 1324 1321 1318 1315 1313 1310 1307 1304 1302 1299 1296 1293 1290 1288 1287 1285 1283 1280 1278 1276 1274 1272 1271 1269 1268 1267 1266 1265 1265 1264 1264 1264 1264 1264 1264 1264 1264 1264 1264 1264 1265 1265 1266 1266 1267 1268 1269 1270 1271 1272 1273 1274 1276 1277 1278 1280 1282 1284 1286 1288 1291 1293 1296 1298 1301 1304 1307 1310
1344 1340 1337 1334 1332 1329 1326 1323 1321 1318 1316 1313 1310 1308 1306 1303 1300 1297 1295 1293 1291 1289 1287 1285 1283 1281 1278 1276 1274 1273 1271 1270 1269 1268 1267 1267 1266 1266 1266 1266 1266 1266 1266 1266 1266 1266 1266 1266 1266 1266 1267 1268 1269 1270 1271 1273 1274 1275 1276 1277 1279 1280 1281 1283 1285 1286 1288 1291 1294 1297 1299 1302 1304 1307
1344 1341 1338 1336 1333 1331 1328 1326 1323 1321 1319 1316 1314 1311 1309 1306 1304 1301 1299 1297 1296 1293 1291 1289 1287 1285 1283 1281 1279 1277 1275 1273 1272 1271 1270 1269 1268 1268 1268 1268 1268 1268 1268 1268 1268 1267 1267 1267 1267 1267 1267 1268 1269 1270 1272 1273 1274 1275 1276 1277 1279 1280 1281 1283 1284 1285 1287 1289 1291 1294 1297 1299 1302 1305
1345 1342 1340 1337 1335 1333 1330 1328 1326 1324 1322 1319 1317 1315 1312 1310 1308 1306 1304 1302 1300 1297 1295 1293 1291 1289 1287 1285 1283 1281 1279 1277 1275 1274 1273 1272 1271 1271 1271 1270 1270 1270 1269 1269 1269 1269 1269 1268 1268 1268 1268 1269 1270 1271 1272 1273 1274 1275 1277 1278 1279 1280 1281 1282 1284 1285 1287 1288 1290 1292 1295 1297 1300 1303
1346 1344 1341 1339 1337 1335 1333 1330 1328 1326 1324 1322 1320 1317 1315 1313 1311 1309 1307 1305 1303 1300 1298 1296 1294 1292 1290 1288 1286 1284 1282 1281 1279 1277 1276 1275 1274 1273 1272 1272 1272 1271 1271 1271 1271 1271 1270 1270 1270 1269 1270 1270 1271 1271 1272 1272 1273 1275 1276 1278 1279 1280 1281 1282 1283 1285 1287 1288 1290 1292 1294 1297 1299 1302
1347 1345 1343 1341 1338 1337 1335 1332 1330 1328 1326 1324 1322 1320 1318 1316 1314 1311 1309 1307 1305 1303 1301 1299 1297 1295 1293 1291 1289 1287 1286 1284 1282 1280 1279 1278 1277 1275 1275 1274 1273 1273 1272 1272 1272 1272 1272 1271 1271 1271 1271 1271 1272 1272 1272 1272 1273 1274 1275 1277 1278 1279 1281 1282 1284 1285 1286 1288 1290 1291 1293 1296 1298 1300
1349 1346 1344 1342 1340 1338 1336 1334 1332 1330 1328 1326 1324 1322 1320 1318 1316 1313 1311 1309 1307 1306 1304 1302 1300 1298 1296 1294 1292 1290 1288 1286 1285 1283 1282 1281 1279 1278 1277 1276 1276 1275 1274 1273 1273 1272 1272 1272 1272 1272 1272 1272 1272 1272 1272 1272 1273 1274 1275 1276 1278 1279 1281 1282 1284 1285 1286 1288 1290 1291 1293 1295 1297 1299
1350 1348 1346 1343 1341 1340 1338 1336 1334 1332 1330 1328 1326 1324 1322 1320 1318 1316 1314 1312 1310 1308 1306 1304 1302 1300 1298 1296 1295 1293 1291 1289 1288 1286 1284 1283 1282 1281 1280 1279 1278 1276 1275 1274 1274 1273 1273 1273 1273 1273 1273 1273 1273 1273 1273 1273 1274 1275 1275 1276 1277 1279 1281 1282 1283 1285 1286 1288 1289 1291 1292 1294 1296 1298
1351 1349 1347 1345 1343 1341 1339 1337 1336 1334 1332 1330 1328 1326 1324 1322 1320 1318 1316 1314 1312 1310 1308 1306 1304 1302 1301 1299 1297 1295 1294 1292 1290 1289 1287 1285 1284 1282 1281 1280 1279 1278 1277 1276 1275 1275 1274 1274 1274 1274 1274 1273 1273 1273 1273 1274 1275 1275 1276 1276 1277 1278 1280 1281 1283 1284 1286 1287 1289 1290 1292 1294 1296 1297
1352 1350 1348 1346 1344 1342 1341 1339 1337 1335 1333 1332 1330 1328 1326 1324 1322 1320 1318 1316 1314 1311 1309 1308 1306 1304 1303 1301 1299 1298 1296 1294 1293 1291 1290 1288 1286 1284 1283 1282 1281 1280 1279 1278 1277 1276 1275 1274 1274 1274 1274 1273 1273 1273 1273 1274 1274 1275 1276 1277 1277 1278 1279 1280 1282 1283 1285 1286 1288 1290 1292 1294 1295 1297
1353 1351 1349 1348 1346 1344 1342 1340 1338 1337 1335 1333 1331 1329 1327 1325 1323 1321 1319 1317 1315 1313 1311 1310 1308 1306 1304 1303 1301 1300 1298 1296 1295 1293 1292 1290 1289 1287 1285 1284 1283 1282 1280 1279 1278 1277 1276 1275 1274 1274 1273 1273 1273 1273 1273 1273 1274 1275 1276 1276 1277 1278 1278 1280 1281 1282 1284 1285 1287 1289 1291 1293 1295 1297
1354 1352 1350 1349 1347 1345 1343 1342 1340 1338 1336 1334 1333 1331 1329 1327 1325 1323 1321 1319 1317 1315 1313 1311 1309 1308 1306 1304 1303 1301 1300 1298 1297 1296 1294 1293 1291 1289 1288 1286 1285 1283 1281 1279 1278 1277 1276 1275 1274 1274 1273 1273 1273 1273 1273 1273 1273 1274 1275 1275 1277 1277 1278 1279 1280 1281 1283 1284 1286 1288 1290 1292 1294 1296